IRIDIUM 129

Last updated on Sun Jun 21 2026 00:03:14 GMT+0000 (Coordinated Universal Time)

1 42958U 17061D 26171.29799306 .00000098 00000+0 28001-4 0 9996 2 42958 86.3967 23.9534 0002386 84.8459 275.3009 14.34218627455246
UTC large
Height (km)
Speed (km/s)
/
Latitude / Longitude
Inclination (degrees)
Orbital Period (minutes)
Azimuth
Elevation
Range (km)
Doppler Factor

Next 0 passes for location: London (51.5072 / 0.1276)

No passes found over London.
IRIDIUM 129